Location: Newark
(45.2500°N, 7.7167°E)
Time: 00:36:19
(UTC+00:00)

OTV 5 (USA 277) - Visible Passes

Search period start: 14 October 2019 00:00
Search period end: 24 October 2019 00:00
Orbit: 310 x 324 km, 54.5° (Epoch: 08 October)

Date Brightness Start Highest point End Pass type
(mag) Time Alt. Az. Time Alt. Az. Time Alt. Az.
14 Oct ? 03:38:55 12° NNE 03:38:55 12° NNE 03:39:37 10° NNE visible
14 Oct ? 05:10:58 10° NW 05:13:21 25° NNE 05:15:44 10° E visible
15 Oct ? 03:53:05 15° N 03:53:14 15° NNE 03:54:54 10° NE visible
16 Oct ? 04:07:19 18° N 04:08:04 20° NNE 04:10:14 10° ENE visible
17 Oct ? 04:21:37 22° NNW 04:22:50 34° NNE 04:25:23 10° E visible
18 Oct ? 04:36:01 25° NW 04:37:28 79° NE 04:40:12 10° ESE visible
19 Oct ? 03:19:36 12° E 03:19:36 12° E 03:19:57 10° E visible
19 Oct ? 04:50:31 20° W 04:51:58 37° SW 04:54:31 10° SSE visible
20 Oct ? 03:34:13 16° ESE 03:34:13 16° ESE 03:34:57 10° ESE visible
20 Oct ? 05:05:08 12° WSW 05:06:20 15° SW 05:08:02 10° S visible
21 Oct ? 03:48:58 15° SE 03:48:58 15° SE 03:49:33 10° SE visible
